Ketchikan, AK

8:31 AM AKST on November 15, 2018 (GMT -0900)
Ketchikan International

Weather History for PAKT - November, 2017

Change the Weather History Date:

Thursday, November 9, 2017

  Actual Average Record
Temperature  
Mean Temperature 36 °F -  
Max Temperature 42 °F 45 °F 57 °F (1952)
Min Temperature 30 °F 34 °F 15 °F (1973)
Degree Days  
Heating Degree Days 29    
Moisture  
Dew Point 31 °F    
Average Humidity 84    
Maximum Humidity 93    
Minimum Humidity 70    
Precipitation  
Precipitation 0.00 in - - ()
Sea Level Pressure  
Sea Level Pressure 29.77 in    
Wind  
Wind Speed 6 mph (NW)    
Max Wind Speed 12 mph    
Max Gust Speed -    
Visibility 10 miles    
Events      
Averages and records for this station are not official NWS values.
T = Trace of Precipitation, MM = Missing Value Source: NWS Daily Summary

Daily Weather History Graph

Daily Weather History Graph

Search for Another Location

Airport or City:

Astronomy

Nov. 09, 2017 Rise Set
Actual Time 7:09 AM AKST 3:51 PM AKST
Civil Twilight 6:28 AM AKST 4:31 PM AKST
Nautical Twilight 5:44 AM AKST 5:16 PM AKST
Astronomical Twilight 5:01 AM AKST 5:58 PM AKST
Moon 9:36 PM AKST (11/9) 12:47 PM AKST (11/9)
Length of Visible Light 10h 03m
Length of Day
8h 42m
Waning Gibbous, 61% of the Moon is Illuminated
Nov 9
Waning Gibbous
Nov 10
Last Quarter
Nov 18
New
Nov 26
First Quarter
Dec 3
Full

Hourly Weather History & Observations

Time (AKST) Temp. Windchill Dew Point Humidity Pressure Visibility Wind Dir Wind Speed Gust Speed Precip Events Conditions
12:53 AM 37.9 °F 30.5 °F 30.9 °F 76% 29.73 in 10.0 mi NNW 11.5 mph - N/A   Clear
1:53 AM 37.9 °F 31.5 °F 30.0 °F 73% 29.73 in 10.0 mi NW 9.2 mph - N/A   Clear
2:53 AM 37.0 °F 33.3 °F 30.0 °F 76% 29.73 in 10.0 mi WNW 4.6 mph - N/A   Clear
3:53 AM 36.0 °F 30.3 °F 30.9 °F 82% 29.73 in 10.0 mi NW 6.9 mph - N/A   Clear
4:53 AM 35.1 °F 29.3 °F 30.9 °F 85% 29.72 in 10.0 mi WNW 6.9 mph - N/A   Clear
5:53 AM 34.0 °F 29.8 °F 30.9 °F 89% 29.74 in 10.0 mi WNW 4.6 mph - N/A   Clear
6:53 AM 30.9 °F - 28.0 °F 89% 29.75 in 10.0 mi Calm Calm - N/A   Clear
7:53 AM 30.0 °F - 28.0 °F 92% 29.76 in 10.0 mi Calm Calm - N/A   Clear
8:53 AM 37.0 °F - 30.9 °F 79% 29.76 in 10.0 mi Calm Calm - N/A   Scattered Clouds
9:53 AM 36.0 °F 31.1 °F 32.0 °F 86% 29.77 in 10.0 mi WNW 5.8 mph - N/A   Partly Cloudy
10:53 AM 39.2 °F 33.0 °F 33.8 °F 81% 29.78 in 10.0 mi NNW 9.2 mph - N/A   Clear
11:53 AM 39.9 °F 33.9 °F 32.0 °F 73% 29.78 in 10.0 mi NW 9.2 mph - N/A   Clear
12:53 PM 42.8 °F 39.3 °F 33.8 °F 70% 29.77 in 10.0 mi NW 5.8 mph - N/A   Clear
1:53 PM 39.2 °F 34.2 °F 32.0 °F 75% 29.77 in 10.0 mi NW 6.9 mph - N/A   Clear
2:53 PM 37.4 °F 33.8 °F 32.0 °F 81% 29.77 in 10.0 mi WNW 4.6 mph - N/A   Clear
3:53 PM 35.6 °F 32.8 °F 30.2 °F 81% 29.78 in 10.0 mi WNW 3.5 mph - N/A   Clear
4:53 PM 35.1 °F 30.1 °F 30.9 °F 85% 29.79 in 10.0 mi WNW 5.8 mph - N/A   Clear
5:53 PM 34.0 °F 29.8 °F 30.9 °F 89% 29.79 in 10.0 mi NW 4.6 mph - N/A   Clear
6:53 PM 30.2 °F - 28.4 °F 93% 29.80 in 10.0 mi Calm Calm - N/A   Clear
7:53 PM 30.2 °F - 28.4 °F 93% 29.81 in 10.0 mi Calm Calm - N/A   Clear
8:53 PM 30.2 °F - 28.4 °F 93% 29.82 in 10.0 mi Calm Calm - N/A   Scattered Clouds
9:53 PM 33.1 °F 30.0 °F 30.9 °F 92% 29.83 in 10.0 mi SE 3.5 mph - N/A   Overcast
10:53 PM 33.1 °F 30.0 °F 30.9 °F 92% 29.84 in 10.0 mi SE 3.5 mph - N/A   Overcast
11:53 PM 34.0 °F 29.8 °F 32.0 °F 92% 29.84 in 10.0 mi SSE 4.6 mph - N/A   Overcast